Time,TemperatureF,DewpointF,PressureIn,WindDirection,WindDirectionDegrees,WindSpeedMPH,WindSpeedGustMPH,Humidity,HourlyPrecipIn,Conditions,Clouds,dailyrainin,SoftwareType,DateUTC
2013-12-09 00:02:00,-6.0,-7.0,-100.00,WNW,290,12.0,13.0,93,-99.99,,,-99.99,,2013-12-09 06:02:00,
2013-12-09 00:42:00,-6.0,-7.0,-100.00,WNW,290,12.0,13.0,93,-99.99,,,-99.99,,2013-12-09 06:42:00,
2013-12-09 00:52:00,-6.0,-7.0,-100.00,WNW,290,12.0,13.0,93,-99.99,,,-99.99,,2013-12-09 06:52:00,
2013-12-09 01:02:00,-7.0,-9.0,-100.00,NW,305,9.0,13.0,90,-99.99,,,-99.99,,2013-12-09 07:02:00,
2013-12-09 01:42:00,-7.0,-9.0,-100.00,NW,305,9.0,13.0,90,-99.99,,,-99.99,,2013-12-09 07:42:00,
2013-12-09 01:52:00,-7.0,-9.0,-100.00,NW,305,9.0,13.0,90,-99.99,,,-99.99,,2013-12-09 07:52:00,
2013-12-09 02:02:00,-8.0,-10.0,-100.00,NW,305,5.0,9.0,90,-99.99,,,-99.99,,2013-12-09 08:02:00,
2013-12-09 02:43:00,-8.0,-10.0,-100.00,NW,305,5.0,9.0,90,-99.99,,,-99.99,,2013-12-09 08:43:00,
2013-12-09 02:52:00,-8.0,-10.0,-100.00,NW,305,5.0,9.0,90,-99.99,,,-99.99,,2013-12-09 08:52:00,
2013-12-09 03:02:00,-9.0,-11.0,-100.00,WNW,295,1.0,4.0,90,-99.99,,,-99.99,,2013-12-09 09:02:00,
2013-12-09 03:43:00,-9.0,-11.0,-100.00,WNW,295,1.0,4.0,90,-99.99,,,-99.99,,2013-12-09 09:43:00,
2013-12-09 03:54:00,-9.0,-11.0,-100.00,WNW,295,1.0,4.0,90,-99.99,,,-99.99,,2013-12-09 09:54:00,
2013-12-09 04:02:00,-9.0,-11.0,-100.00,NW,305,9.0,12.0,91,-99.99,,,-99.99,,2013-12-09 10:02:00,
2013-12-09 04:43:00,-9.0,-11.0,-100.00,NW,305,9.0,12.0,91,-99.99,,,-99.99,,2013-12-09 10:43:00,
2013-12-09 04:53:00,-9.0,-11.0,-100.00,NW,305,9.0,12.0,91,-99.99,,,-99.99,,2013-12-09 10:53:00,
2013-12-09 05:02:00,-10.0,-16.0,-100.00,West,280,10.0,12.0,74,-99.99,,,-99.99,,2013-12-09 11:02:00,
2013-12-09 05:42:00,-10.0,-16.0,-100.00,West,280,10.0,12.0,74,-99.99,,,-99.99,,2013-12-09 11:42:00,
2013-12-09 05:53:00,-10.0,-16.0,-100.00,West,280,10.0,12.0,74,-99.99,,,-99.99,,2013-12-09 11:53:00,
2013-12-09 06:02:00,-11.0,-13.0,-100.00,West,275,6.0,7.0,92,-99.99,,,-99.99,,2013-12-09 12:02:00,
2013-12-09 06:42:00,-11.0,-13.0,-100.00,West,275,6.0,7.0,92,-99.99,,,-99.99,,2013-12-09 12:42:00,
2013-12-09 06:52:00,-11.0,-13.0,-100.00,West,275,6.0,7.0,92,-99.99,,,-99.99,,2013-12-09 12:52:00,
2013-12-09 07:02:00,-12.0,-14.0,-100.00,WSW,255,1.0,2.0,93,-99.99,,,-99.99,,2013-12-09 13:02:00,
2013-12-09 07:42:00,-12.0,-14.0,-100.00,WSW,255,1.0,2.0,93,-99.99,,,-99.99,,2013-12-09 13:42:00,
2013-12-09 07:52:00,-12.0,-14.0,-100.00,WSW,255,1.0,2.0,93,-99.99,,,-99.99,,2013-12-09 13:52:00,
2013-12-09 08:02:00,-13.0,-15.0,-100.00,WNW,295,0.0,0.0,93,-99.99,,,-99.99,,2013-12-09 14:02:00,
2013-12-09 08:42:00,-13.0,-15.0,-100.00,WNW,295,0.0,0.0,93,-99.99,,,-99.99,,2013-12-09 14:42:00,
2013-12-09 08:52:00,-13.0,-15.0,-100.00,WNW,295,0.0,0.0,93,-99.99,,,-99.99,,2013-12-09 14:52:00,
2013-12-09 09:02:00,-12.0,-13.0,-100.00,SW,225,0.0,0.0,95,-99.99,,,-99.99,,2013-12-09 15:02:00,
2013-12-09 09:43:00,-12.0,-13.0,-100.00,SW,225,0.0,0.0,95,-99.99,,,-99.99,,2013-12-09 15:43:00,
2013-12-09 09:53:00,-12.0,-13.0,-100.00,SW,225,0.0,0.0,95,-99.99,,,-99.99,,2013-12-09 15:53:00,
2013-12-09 12:02:00,3.0,-4.0,-100.00,SW,220,7.0,9.0,73,-99.99,,,-99.99,,2013-12-09 18:02:00,
2013-12-09 12:52:00,3.0,-4.0,-100.00,SW,220,7.0,9.0,73,-99.99,,,-99.99,,2013-12-09 18:52:00,
2013-12-09 13:02:00,1.0,-5.0,-100.00,SSW,200,3.0,4.0,75,-99.99,,,-99.99,,2013-12-09 19:02:00,
2013-12-09 13:43:00,1.0,-5.0,-100.00,SSW,200,3.0,4.0,75,-99.99,,,-99.99,,2013-12-09 19:43:00,
2013-12-09 13:52:00,1.0,-5.0,-100.00,SSW,200,3.0,4.0,75,-99.99,,,-99.99,,2013-12-09 19:52:00,
2013-12-09 14:02:00,5.0,-1.0,-100.00,WSW,240,6.0,9.0,75,-99.99,,,-99.99,,2013-12-09 20:02:00,
2013-12-09 14:42:00,5.0,-1.0,-100.00,WSW,240,6.0,9.0,75,-99.99,,,-99.99,,2013-12-09 20:42:00,
2013-12-09 14:53:00,5.0,-1.0,-100.00,WSW,240,6.0,9.0,75,-99.99,,,-99.99,,2013-12-09 20:53:00,
2013-12-09 15:02:00,7.0,1.0,-100.00,SW,215,10.0,15.0,78,-99.99,,,-99.99,,2013-12-09 21:02:00,
2013-12-09 15:44:00,7.0,1.0,-100.00,SW,215,10.0,15.0,78,-99.99,,,-99.99,,2013-12-09 21:44:00,
2013-12-09 15:53:00,7.0,1.0,-100.00,SW,215,10.0,15.0,78,-99.99,,,-99.99,,2013-12-09 21:53:00,
2013-12-09 16:02:00,9.0,7.0,-100.00,SSW,195,4.0,7.0,93,-99.99,,,-99.99,,2013-12-09 22:02:00,
2013-12-09 16:43:00,9.0,7.0,-100.00,SSW,195,4.0,7.0,93,-99.99,,,-99.99,,2013-12-09 22:43:00,
2013-12-09 16:53:00,9.0,7.0,-100.00,SSW,195,4.0,7.0,93,-99.99,,,-99.99,,2013-12-09 22:53:00,
2013-12-09 17:02:00,11.0,10.0,-100.00,SW,220,6.0,7.0,99,-99.99,,,-99.99,,2013-12-09 23:02:00,
2013-12-09 17:43:00,11.0,10.0,-100.00,SW,220,6.0,7.0,99,-99.99,,,-99.99,,2013-12-09 23:43:00,
2013-12-09 17:53:00,11.0,10.0,-100.00,SW,220,6.0,7.0,99,-99.99,,,-99.99,,2013-12-09 23:53:00,
2013-12-09 18:02:00,17.0,17.0,-100.00,WNW,295,14.0,24.0,97,-99.99,,,-99.99,,2013-12-10 00:02:00,
2013-12-09 18:42:00,17.0,17.0,-100.00,WNW,295,14.0,24.0,97,-99.99,,,-99.99,,2013-12-10 00:42:00,
2013-12-09 18:53:00,17.0,17.0,-100.00,WNW,295,14.0,24.0,97,-99.99,,,-99.99,,2013-12-10 00:53:00,
2013-12-09 19:02:00,14.0,13.0,-100.00,NNW,330,11.0,16.0,95,-99.99,,,-99.99,,2013-12-10 01:02:00,
2013-12-09 19:42:00,14.0,13.0,-100.00,NNW,330,11.0,16.0,95,-99.99,,,-99.99,,2013-12-10 01:42:00,
2013-12-09 19:52:00,14.0,13.0,-100.00,NNW,330,11.0,16.0,95,-99.99,,,-99.99,,2013-12-10 01:52:00,
2013-12-09 20:02:00,11.0,1.0,-100.00,NW,325,12.0,19.0,63,-99.99,,,-99.99,,2013-12-10 02:02:00,
2013-12-09 20:42:00,11.0,1.0,-100.00,NW,325,12.0,19.0,63,-99.99,,,-99.99,,2013-12-10 02:42:00,
2013-12-09 20:52:00,11.0,1.0,-100.00,NW,325,12.0,19.0,63,-99.99,,,-99.99,,2013-12-10 02:52:00,
2013-12-09 21:02:00,9.0,7.0,-100.00,NW,305,11.0,17.0,89,-99.99,,,-99.99,,2013-12-10 03:02:00,
2013-12-09 21:43:00,9.0,7.0,-100.00,NW,305,11.0,17.0,89,-99.99,,,-99.99,,2013-12-10 03:43:00,
2013-12-09 21:54:00,9.0,7.0,-100.00,NW,305,11.0,17.0,89,-99.99,,,-99.99,,2013-12-10 03:54:00,
2013-12-09 22:02:00,7.0,4.0,-100.00,North,350,3.0,7.0,90,-99.99,,,-99.99,,2013-12-10 04:02:00,
2013-12-09 22:43:00,7.0,4.0,-100.00,North,350,3.0,7.0,90,-99.99,,,-99.99,,2013-12-10 04:43:00,
2013-12-09 22:53:00,7.0,4.0,-100.00,North,350,3.0,7.0,90,-99.99,,,-99.99,,2013-12-10 04:53:00,